EW0159 Weather Reports


Display with metric or nautical units.
time (UTC)temp
F
wind
direction
speed
MPH
gust
MPH
rain 1hr
in
rain 24hr
in
rain mn
in
humidity
%
barometer
mb
20260505210010 60 65 1.0 2.0 0.00 0.00 0.00 79 1016.5
20260505204508 60 53 0.0 2.0 0.00 0.00 0.00 79 1016.6
20260505203008 59 162 2.0 3.0 0.00 0.00 0.00 80 1016.6
20260505201506 59 237 0.0 2.0 0.00 0.00 0.00 80 1016.8
20260505200005 59 230 2.0 4.0 0.00 0.00 0.00 80 1016.8
20260505194509 58 225 1.0 3.0 0.00 0.00 0.00 81 1016.8
20260505193010 58 224 1.0 4.0 0.00 0.00 0.00 80 1016.7
20260505191502 58 269 0.0 3.0 0.00 0.00 0.00 81 1016.8
20260505190001 58 26 1.0 3.0 0.00 0.00 0.00 81 1016.7
20260505184608 58 209 1.0 3.0 0.00 0.00 0.00 82 1016.7
20260505183059 58 131 0.0 2.0 0.00 0.00 0.00 82 1016.7
20260505181559 57 239 0.0 2.0 0.00 0.00 0.00 82 1016.6
20260505174610 56 172 1.0 3.0 0.00 0.00 0.00 82 1016.7
20260505173051 56 170 1.0 3.0 0.00 0.00 0.00 81 1016.6
20260505171549 55 134 1.0 5.0 0.00 0.00 0.00 79 1016.5
20260505170115 55 174 2.0 5.0 0.00 0.00 0.00 78 1016.4
20260505164549 54 148 2.0 5.0 0.00 0.00 0.00 75 1016.3
20260505163046 54 125 2.0 4.0 0.00 0.00 0.00 73 1016.2
20260505161554 54 171 3.0 5.0 0.00 0.00 0.00 72 1016.2
20260505153053 53 211 2.0 4.0 0.00 0.00 0.00 72 1016.1
20260505151545 53 205 2.0 4.0 0.00 0.00 0.00 73 1015.9
20260505124526 52 167 0.0 1.0 0.00 0.00 0.00 77 1014.9
20260505123039 52 167 0.0 1.0 0.00 0.00 0.00 77 1014.8
20260505121524 52 167 0.0 2.0 0.00 0.00 0.00 77 1014.8
20260505120028 52 167 0.0 1.0 0.00 0.00 0.00 77 1014.8
20260505114521 52 167 0.0 2.0 0.00 0.00 0.00 77 1014.7
20260505113032 52 167 0.0 0.0 0.00 0.00 0.00 76 1014.6
20260505111527 52 167 0.0 0.0 0.00 0.00 0.00 76 1014.6
20260505101515 51 167 0.0 1.0 0.00 0.00 0.00 77 1014.2
20260505100012 51 167 0.0 0.0 0.00 0.00 0.00 77 1014.1
20260505094511 51 167 0.0 1.0 0.00 0.00 0.00 77 1014.0
20260505093010 51 167 0.0 0.0 0.00 0.00 0.00 78 1014.0
20260505091506 52 53 0.0 2.0 0.00 0.00 0.00 79 1013.7
20260505090004 52 53 0.0 0.0 0.00 0.00 0.00 80 1013.6
20260505084501 52 53 0.0 0.0 0.00 0.00 0.00 80 1013.5
20260505083117 53 53 0.0 1.0 0.00 0.00 0.00 81 1013.4
20260505081558 54 105 0.0 2.0 0.00 0.00 0.00 81 1013.4
20260505080054 54 79 1.0 4.0 0.00 0.00 0.00 80 1013.3
20260505074553 54 70 1.0 5.0 0.00 0.00 0.00 79 1013.2
20260505073053 54 178 1.0 3.0 0.00 0.00 0.00 79 1013.0
20260505071546 55 69 0.0 0.0 0.00 0.00 0.00 80 1012.8
20260505070050 55 69 0.0 1.0 0.00 0.00 0.00 80 1012.5
20260505064556 55 69 1.0 3.0 0.00 0.00 0.00 79 1012.4
20260505063050 56 34 0.0 2.0 0.00 0.00 0.00 80 1012.2
20260505061544 57 34 0.0 2.0 0.00 0.00 0.00 80 1011.9
20260505060042 57 34 0.0 1.0 0.00 0.00 0.00 81 1011.8
20260505054548 58 34 0.0 2.0 0.00 0.00 0.00 81 1011.7
20260505053041 58 34 0.0 3.0 0.00 0.00 0.00 81 1011.8
20260505051541 59 34 0.0 2.0 0.00 0.00 0.00 81 1011.6
20260505041546 63 325 0.0 2.0 0.00 0.00 0.00 79 1010.9
20260505040038 64 325 0.0 3.0 0.00 0.00 0.00 78 1010.6
20260505034542 65 33 0.0 2.0 0.00 0.00 0.00 79 1010.4
20260505033038 66 34 0.0 2.0 0.00 0.00 0.00 78 1010.2
20260505031537 68 260 0.0 1.0 0.00 0.00 0.00 75 1010.0
20260505030036 70 260 0.0 1.0 0.00 0.00 0.00 71 1009.9
20260505024543 71 234 0.0 1.0 0.00 0.00 0.00 70 1009.8
20260505023044 72 234 0.0 3.0 0.00 0.00 0.00 69 1009.7
20260505021540 72 209 3.0 5.0 0.00 0.00 0.00 68 1009.6
20260505020034 73 259 1.0 5.0 0.00 0.00 0.00 67 1009.7
20260505014540 73 241 2.0 5.0 0.00 0.00 0.00 66 1009.7
20260505013033 73 227 3.0 7.0 0.00 0.00 0.00 67 1009.7
20260505011534 74 202 2.0 5.0 0.00 0.00 0.00 67 1009.6
20260505010033 74 219 4.0 7.0 0.00 0.00 0.00 66 1009.8
20260505004532 75 218 3.0 7.0 0.00 0.00 0.00 63 1009.9
20260505003029 75 240 4.0 9.0 0.00 0.00 0.00 65 1009.9
20260505001535 75 236 5.0 8.0 0.00 0.00 0.00 63 1009.9
20260505000038 75 162 4.0 9.0 0.00 0.00 0.00 64 1010.1
20260504234528 75 170 3.0 7.0 0.00 0.00 0.00 66 1010.1
20260504233028 75 176 2.0 7.0 0.00 0.00 0.00 66 1010.2
20260504231530 74 165 3.0 6.0 0.00 0.00 0.00 65 1010.3
20260504230023 74 59 2.0 7.0 0.00 0.00 0.00 64 1010.4
20260504224525 73 207 3.0 8.0 0.00 0.00 0.00 67 1010.7
20260504223019 72 154 4.0 7.0 0.00 0.00 0.00 64 1010.8
20260504221515 71 146 2.0 8.0 0.00 0.00 0.00 68 1011.0
20260504220018 71 155 3.0 8.0 0.00 0.00 0.00 68 1011.3
20260504214511 70 159 2.0 7.0 0.00 0.00 0.00 71 1011.3
20260504213012 69 156 3.0 8.0 0.00 0.00 0.00 71 1011.5
20260504211512 69 195 4.0 9.0 0.00 0.00 0.00 72 1011.7